Back to catalog

COSMOS 2285

AliveNavigationLEO
NORAD 23189·PAYLOAD·🇷🇺 Russia

Launched Aug 2, 1994 from Plesetsk Cosmodrome

Loading…

Next Passes (next 24 hours)

TLE

FreshSource: Space-Track

Epoch: Sep 14, 2026, 04:07 UTC

1 23189U 94045A   26257.17189706  .00000021  00000-0  47917-4 0  9991
2 23189  74.0310 326.3505 0026083 304.2548  84.3702 13.72530841608607

Track COSMOS 2285 in real time with AllMySat

Download on the App Store